Montgomery, AL

11:36 PM CDT on September 28, 2016 (GMT -0500)
Maxwell Air Force Base

Weather History for KMXF - June, 2014

Change the Weather History Date:

Monday, June 23, 2014

  Actual Average Record
Temperature  
Mean Temperature 80 °F -  
Max Temperature 91 °F 87 °F 100 °F (1998)
Min Temperature 69 °F 70 °F 64 °F (2003)
Cooling Degree Days 14    
Growing Degree Days 30 (Base 50)    
Moisture  
Dew Point 71 °F    
Average Humidity 88    
Maximum Humidity 100    
Minimum Humidity 49    
Precipitation  
Precipitation 2.27 in - - ()
Sea Level Pressure  
Sea Level Pressure 30.00 in    
Wind  
Wind Speed 3 mph (WSW)    
Max Wind Speed 9 mph    
Max Gust Speed 21 mph    
Visibility 8 miles    
Events Fog , Rain , Thunderstorm    
Averages and records for this station are not official NWS values.
T = Trace of Precipitation, MM = Missing Value Source: NWS Daily Summary

Daily Weather History Graph

Daily Weather History Graph

Search for Another Location

Airport or City:

Trip Planner

Search our weather history database for the weather conditions in past years. The results will help you decide how hot, cold, wet, or windy it might be!

Date:

Astronomy

Jun. 23, 2014 Rise Set
Actual Time 5:39 AM CDT 7:56 PM CDT
Civil Twilight 5:10 AM CDT 8:24 PM CDT
Nautical Twilight 4:36 AM CDT 8:59 PM CDT
Astronomical Twilight 3:58 AM CDT 9:37 PM CDT
Moon 2:55 AM CDT (6/23) 4:44 PM CDT (6/23)
Length of Visible Light 15h 13m
Length of Day
14h 16m
Waning Crescent, 13% of the Moon is Illuminated
Jun 23
Waning Crescent
Jun 27
New
Jul 5
First Quarter
Jul 12
Full
Jul 18
Last Quarter

Hourly Weather History & Observations

Time (CDT) Temp. Heat Index Dew Point Humidity Pressure Visibility Wind Dir Wind Speed Gust Speed Precip Events Conditions
12:08 AM 71.6 °F - 71.6 °F 100% 29.93 in 10.0 mi SSW 3.5 mph - N/A   Mostly Cloudy
12:23 AM 71.6 °F - 71.6 °F 100% 29.93 in 10.0 mi SSW 2.3 mph - N/A   Overcast
12:38 AM 71.6 °F - 71.6 °F 100% 29.92 in 10.0 mi SSW 2.3 mph - N/A   Overcast
12:58 AM 71.2 °F - 71.2 °F 100% 29.93 in 10.0 mi NNW 1.2 mph - N/A   Overcast
1:58 AM 70.9 °F - 70.9 °F 100% 29.94 in 10.0 mi SW 1.2 mph - N/A   Mostly Cloudy
2:23 AM 71.6 °F - 71.6 °F 100% 29.93 in 10.0 mi ESE 1.2 mph - N/A   Overcast
2:58 AM 70.9 °F - 70.9 °F 100% 29.96 in 10.0 mi West 2.3 mph - N/A   Overcast
3:58 AM 70.3 °F - 70.3 °F 100% 29.97 in 9.0 mi South 3.5 mph - N/A   Mostly Cloudy
4:03 AM 69.8 °F - 69.8 °F 100% 29.96 in 9.0 mi South 3.5 mph - N/A   Mostly Cloudy
4:23 AM 69.8 °F - 69.8 °F 100% 29.96 in 10.0 mi Calm Calm - N/A   Mostly Cloudy
4:28 AM 69.8 °F - 69.8 °F 100% 29.97 in 10.0 mi Calm Calm - N/A   Mostly Cloudy
4:43 AM 69.8 °F - 69.8 °F 100% 29.97 in 9.0 mi South 2.3 mph - N/A   Mostly Cloudy
4:58 AM 69.6 °F - 69.6 °F 100% 29.98 in 7.0 mi South 2.3 mph - N/A   Mostly Cloudy
5:48 AM 69.8 °F - 69.8 °F 100% 29.98 in 7.0 mi Calm Calm - N/A   Overcast
5:58 AM 70.2 °F - 70.2 °F 100% 29.99 in 8.0 mi Calm Calm - N/A   Mostly Cloudy
6:23 AM 69.8 °F - 69.8 °F 100% 29.99 in 7.0 mi Calm Calm - N/A   Overcast
6:38 AM 71.6 °F - 71.6 °F 100% 29.99 in 8.0 mi Calm Calm - N/A   Scattered Clouds
6:43 AM 71.6 °F - 71.6 °F 100% 30.00 in 8.0 mi Calm Calm - N/A   Mostly Cloudy
6:58 AM 71.6 °F - 71.6 °F 100% 30.01 in 8.0 mi Calm Calm - N/A   Mostly Cloudy
7:03 AM 71.6 °F - 71.6 °F 100% 30.00 in 8.0 mi NW 1.2 mph - N/A   Scattered Clouds
7:58 AM 74.8 °F - 71.2 °F 88% 30.02 in 10.0 mi Variable 1.2 mph - 0.01 in   Clear
8:58 AM 79.5 °F - 70.5 °F 74% 30.04 in 10.0 mi Variable 3.5 mph - N/A   Clear
9:58 AM 81.9 °F 85.6 °F 70.0 °F 67% 30.04 in 10.0 mi Variable 2.3 mph - N/A   Clear
10:58 AM 83.7 °F 87.5 °F 69.3 °F 62% 30.04 in 10.0 mi Variable 2.3 mph - N/A   Clear
11:58 AM 86.4 °F 90.4 °F 68.9 °F 56% 30.03 in 10.0 mi North 5.8 mph - N/A   Partly Cloudy
12:58 PM 87.6 °F 93.1 °F 70.7 °F 57% 30.01 in 10.0 mi NNE 8.1 mph - N/A   Partly Cloudy
1:58 PM 88.9 °F 93.8 °F 69.8 °F 53% 29.99 in 10.0 mi Variable 1.2 mph - N/A   Clear
2:58 PM 89.8 °F 95.1 °F 69.8 °F 52% 29.98 in 10.0 mi Variable 4.6 mph - N/A   Clear
3:58 PM 90.3 °F 95.7 °F 70.0 °F 51% 29.98 in 10.0 mi South 8.1 mph - N/A   Clear
4:58 PM 89.4 °F 94.8 °F 70.0 °F 53% 29.96 in 10.0 mi South 4.6 mph - N/A   Clear
5:58 PM 89.2 °F 92.8 °F 68.0 °F 49% 29.96 in 10.0 mi Variable 4.6 mph - N/A   Clear
6:58 PM 86.9 °F 91.3 °F 69.4 °F 56% 29.97 in 10.0 mi WNW 2.3 mph - N/A   Clear
7:58 PM 82.4 °F 88.2 °F 73.2 °F 74% 29.99 in 10.0 mi South 8.1 mph - N/A   Clear
8:58 PM 80.4 °F 85.1 °F 73.6 °F 80% 30.01 in 10.0 mi South 4.6 mph - N/A   Partly Cloudy
9:29 PM 80.6 °F 85.4 °F 73.4 °F 79% 30.02 in 10.0 mi Variable 4.6 mph - N/A   Light Drizzle
9:39 PM 78.8 °F - 75.2 °F 89% 30.02 in 10.0 mi South 5.8 mph - N/A Rain Light Rain
9:44 PM 78.8 °F - 75.2 °F 89% 30.02 in 10.0 mi SSW 3.5 mph - N/A Rain Light Rain
9:49 PM 78.8 °F - 75.2 °F 89% 30.02 in 10.0 mi WSW 4.6 mph - N/A Rain Light Rain
9:58 PM 77.9 °F - 75.9 °F 94% 30.04 in 6.0 mi NW 9.2 mph - 0.01 in Rain Light Rain
10:12 PM 75.2 °F - 73.4 °F 94% 30.04 in 2.5 mi NNW 8.1 mph 20.7 mph N/A Rain , Thunderstorm Thunderstorms and Rain
10:17 PM 73.4 °F - 73.4 °F 100% 30.06 in 1.8 mi West 8.1 mph 20.7 mph N/A Rain , Thunderstorm Heavy Thunderstorms and Rain
10:22 PM 73.4 °F - 73.4 °F 100% 30.07 in 1.0 mi WNW 9.2 mph - N/A Rain , Thunderstorm Heavy Thunderstorms and Rain
10:27 PM 73.4 °F - 73.4 °F 100% 30.09 in 0.5 mi WNW 6.9 mph - N/A Fog , Rain , Thunderstorm Heavy Thunderstorms and Rain
10:32 PM 73.4 °F - 73.4 °F 100% 30.08 in 0.2 mi NW 4.6 mph - N/A Fog , Rain , Thunderstorm Heavy Thunderstorms and Rain
10:47 PM 71.6 °F - 71.6 °F 100% 30.06 in 0.5 mi WNW 9.2 mph - N/A Fog , Rain , Thunderstorm Heavy Thunderstorms and Rain
10:58 PM 71.8 °F - 71.8 °F 100% 30.06 in 0.5 mi North 8.1 mph - 1.94 in Fog , Rain , Thunderstorm Heavy Thunderstorms and Rain
11:03 PM 71.6 °F - 71.6 °F 100% 30.04 in 0.5 mi NNE 9.2 mph - N/A Fog , Rain , Thunderstorm Heavy Thunderstorms and Rain
11:08 PM 71.6 °F - 71.6 °F 100% 30.05 in 1.0 mi WSW 5.8 mph - N/A Rain , Thunderstorm Heavy Thunderstorms and Rain
11:09 PM 71.6 °F - 71.6 °F 100% 30.05 in 1.0 mi SW 5.8 mph - N/A Rain Light Rain
11:14 PM 71.6 °F - 71.6 °F 100% 30.05 in 5.0 mi SSW 4.6 mph - N/A Rain Light Rain
11:58 PM 72.7 °F - 72.7 °F 100% 30.04 in 4.0 mi Variable 1.2 mph - 0.31 in Rain Rain